SCP
0 0 1 1 1 1 1 1 1 1 2 2 1 1 2 2 1 1 1 1 1 1 1 0 0 0 0 0 0 0 0 0 1 1 1 0 0 0 0 0 0 0 0
0 0 1 1 1 1 1 1 1 1 2 2 2 1 2 2 1 1 1 1 1 1 1 0 0 0 0 0 0 0 1 1 1 1 1 0 0 0 0 0 0 0 0
0 0 0 0 0 1 1 1 1 1 1 1 1 1 1 1 1 1 1 1 1 1 1 0 0 0 0 0 0 0 1 1 1 1 1 1 0 0 0 0 0 0 0
0 0 0 0 0 1 1 1 1 1 1 1 1 1 1 1 1 1 1 1 1 1 1 0 0 0 1 1 0 0 0 1 1 1 1 1 1 0 0 0 0 0 0
0 0 0 0 0 1 1 1 1 1 1 1 1 1 1 1 1 1 1 1 1 1 1 0 0 1 1 0 0 0 0 0 1 0 0 0 1 0 0 0 0 0 0
0 0 0 0 0 0 1 1 1 1 1 1 1 1 1 1 1 1 1 1 1 1 1 0 1 1 1 0 0 0 0 0 0 0 0 0 0 0 0 0 0 0 0
0 0 0 0 0 0 1 1 1 1 1 1 0 0 0 0 0 0 1 1 1 1 1 1 1 1 1 1 1 1 1 1 1 1 1 0 0 1 1 0 0 0 0
0 0 0 0 0 0 0 1 1 0 1 1 1 0 0 0 0 0 1 1 1 1 1 1 1 1 1 1 1 1 1 1 1 1 1 1 1 1 1 0 0 0 0
0 0 0 0 0 0 0 0 0 0 0 1 1 0 0 0 1 1 1 1 1 1 1 1 1 1 1 1 1 1 1 1 1 1 1 1 1 1 1 0 0 0 0
0 0 0 0 0 0 0 0 0 0 0 0 0 0 0 0 1 1 1 1 2 2 2 1 1 1 1 1 1 1 1 1 1 1 1 1 1 1 1 1 0 0 0
0 0 0 0 0 0 0 0 0 0 0 0 0 0 0 0 1 1 1 1 1 1 1 1 1 1 1 1 1 1 1 1 1 1 1 1 1 1 1 1 1 0 0
0 0 0 0 0 0 0 0 0 0 0 0 0 0 0 0 1 1 1 1 1 1 1 1 1 1 1 1 1 1 1 1 1 1 1 1 1 1 1 1 1 0 0
0 0 0 0 0 0 0 0 0 0 0 0 0 0 0 0 0 0 0 0 0 1 1 1 1 1 1 1 1 1 1 1 1 1 1 0 1 1 1 0 0 0 0
0 0 0 0 0 0 0 0 0 0 0 0 0 0 0 0 0 0 0 0 0 0 0 0 0 1 1 1 1 1 1 1 1 0 0 0 0 0 0 0 0 0 0
0 0 0 0 0 0 0 0 0 0 0 0 0 0 0 0 0 0 0 0 0 0 0 1 1 1 1 0 0 0 0 0 0 0 0 0 0 0 0 0 0 0 0
0 0 0 0 0 0 0 0 0 0 0 0 0 0 0 0 0 0 0 0 0 0 0 0 0 0 0 0 0 0 0 0 1 0 0 0 0 0 0 0 0 0 0
0 0 0 0 0 0 0 0 0 0 0 0 0 0 0 0 0 0 0 0 0 0 0 0 0 0 0 0 0 0 0 0 1 1 0 0 0 0 0 0 0 0 0
0 0 0 0 0 0 0 0 0 0 0 0 0 0 0 0 0 0 0 0 0 0 0 0 0 0 0 0 0 0 0 0 0 0 0 0 0 0 0 0 0 0 0
0 0 0 0 0 0 0 0 0 0 0 0 0 0 0 0 0 0 0 0 0 0 0 0 0 0 0 0 0 0 0 0 0 0 0 0 0 0 0 0 0 0 0
0 0 0 0 0 0 0 0 0 0 0 0 0 0 0 0 0 0 0 0 0 0 0 0 0 0 0 0 0 0 0 0 0 0 0 0 0 0 0 0 0 0 0
0 0 0 0 0 0 0 0 0 0 0 0 0 0 0 0 0 0 0 0 0 0 0 0 0 0 0 0 0 0 0 0 0 0 0 0 0 0 0 0 0 0 0
0 0 0 0 0 0 0 0 0 0 0 0 0 0 0 0 0 0 0 0 0 0 0 0 0 0 0 0 0 0 0 0 0 0 0 0 0 0 0 0 0 0 0
0 0 0 0 0 0 0 0 0 0 0 0 0 0 0 0 0 0 0 0 0 0 0 0 0 0 0 0 0 0 0 0 0 0 0 0 0 0 0 0 0 0 0
0 0 0 0 0 0 0 0 0 0 0 0 0 0 0 0 0 0 0 0 0 0 0 0 0 0 0 0 0 0 0 0 0 0 0 0 0 0 0 0 0 0 0
0 0 0 0 0 0 0 0 0 0 0 0 0 0 0 0 0 0 0 0 0 0 0 0 0 0 0 0 0 0 0 0 0 0 0 0 0 0 0 0 0 0 0
0 0 0 0 0 0 0 0 0 0 0 0 0 0 0 0 0 0 0 0 0 0 0 0 0 0 0 0 0 0 0 0 0 0 0 0 0 0 0 0 0 0 0
Wind_Speed
4 3 2 2 2 3 4 5 5 6 5 4 4 5 6 6 6 6 8 10 10 10 9 7 8 8 8 8 8 5 6 4 4 3 1 1 0 1 2 2 3 3 3
2 1 1 1 3 4 4 4 5 5 6 5 4 4 5 5 5 5 6 9 10 10 9 8 8 9 7 8 7 6 4 3 4 4 3 1 1 1 1 2 3 3 3
2 2 2 2 2 3 4 4 4 5 5 6 3 3 4 3 4 4 5 7 9 10 9 10 8 8 9 8 8 7 7 5 4 4 5 4 4 2 1 2 2 3 3
3 2 2 2 2 3 3 4 4 4 4 4 4 6 6 6 5 5 5 6 8 9 9 9 9 9 8 8 8 7 5 7 5 3 2 3 4 4 2 1 2 3 4
4 4 3 1 1 2 2 2 2 3 3 3 4 5 5 4 4 4 5 6 6 8 8 9 8 8 8 8 8 7 6 5 5 4 3 2 1 2 3 3 2 2 2
5 5 4 2 1 1 1 1 2 2 2 4 4 5 6 6 6 5 6 6 5 6 8 8 7 8 7 9 9 8 8 7 6 5 3 4 4 3 3 3 3 3 2
6 6 6 4 3 3 1 0 2 1 1 3 4 5 5 5 6 6 6 6 5 5 7 7 7 7 8 8 8 8 8 8 8 7 5 4 4 3 3 3 2 2 2
6 7 6 5 3 3 2 1 1 0 0 1 3 3 3 3 4 5 5 6 5 6 7 7 7 7 8 8 8 7 7 7 8 8 6 4 4 4 4 4 4 2 2
6 6 7 6 5 4 3 2 2 1 0 1 2 3 3 3 4 5 5 4 4 4 6 6 6 7 8 8 8 7 8 7 7 7 7 5 4 4 3 3 4 5 4
6 7 6 7 6 5 5 3 2 2 2 1 1 0 2 3 3 4 4 5 5 5 6 6 6 7 8 8 8 7 7 8 7 6 7 6 4 4 3 4 3 3 4
7 7 6 6 6 6 7 6 4 3 2 2 2 2 1 1 3 4 5 5 5 6 6 6 6 6 7 8 7 7 8 8 7 6 7 7 6 5 4 3 3 3 3
6 7 7 7 7 7 7 7 5 3 3 3 2 2 1 1 1 2 3 4 5 6 6 6 6 6 7 8 9 9 9 9 9 9 8 7 6 7 5 5 5 4 3
7 8 8 8 8 8 8 7 7 5 4 3 3 3 2 2 2 2 2 3 4 4 4 5 6 6 7 8 8 9 9 9 9 9 9 9 8 8 6 6 5 4 3
7 8 8 8 8 7 7 7 8 6 5 5 4 4 4 3 2 2 2 2 3 4 4 5 5 6 6 7 7 7 7 7 7 7 8 8 9 9 8 6 6 5 4
7 7 7 7 8 8 8 8 8 8 7 6 5 4 4 4 3 3 2 2 2 3 4 4 4 4 5 5 6 6 7 7 6 6 6 6 8 9 8 7 7 7 5
6 6 7 7 7 7 7 7 7 7 6 6 5 5 4 4 4 3 3 2 1 1 1 2 3 4 3 6 8 6 6 6 7 6 5 5 7 9 10 10 11 10 8
5 6 6 6 6 6 7 7 7 6 6 5 5 5 4 4 4 4 3 3 2 1 1 1 2 3 3 5 6 7 5 6 6 6 6 5 5 7 6 7 8 7 9
4 5 6 6 6 6 6 6 6 7 6 6 6 6 5 4 4 4 4 3 2 1 1 1 2 1 2 4 5 5 4 4 5 5 6 6 6 6 8 7 5 4 3
3 3 4 4 5 6 6 6 7 7 7 7 7 6 5 4 4 4 4 3 2 2 1 1 1 1 1 3 5 5 3 3 4 4 4 6 6 9 11 8 7 5 3
2 2 3 4 5 5 5 5 6 7 7 7 7 6 5 4 4 4 4 3 2 2 1 1 1 1 1 2 4 4 3 4 3 3 4 6 7 10 11 8 8 7 5
2 2 3 3 4 4 4 5 5 6 7 7 6 6 5 4 4 4 3 3 2 2 1 2 1 0 1 2 3 3 2 4 4 3 3 4 8 9 10 8 6 8 8
2 2 2 3 4 4 4 5 5 6 6 6 6 6 5 4 4 3 3 3 2 2 2 1 1 1 0 1 3 4 3 4 4 4 3 4 9 9 8 6 8 11 10
2 2 2 3 4 4 3 4 6 7 6 6 6 6 5 4 3 3 3 3 2 2 2 1 1 1 1 1 2 3 4 4 3 3 5 6 8 8 6 9 11 9 6
2 2 2 3 4 4 4 4 5 6 6 6 6 5 5 4 4 3 2 2 2 2 2 1 1 1 1 0 1 1 2 4 3 4 5 7 7 5 6 7 5 4 5
1 1 2 2 4 4 4 5 5 5 5 5 5 5 4 4 4 3 2 2 2 3 2 2 1 1 2 2 2 1 1 2 3 4 3 3 3 3 3 3 3 3 4
1 1 2 3 3 3 4 5 5 4 4 4 5 4 4 3 3 3 3 4 4 5 4 4 3 2 3 2 2 1 2 3 6 4 4 4 3 4 4 5 4 3 4
Wind_Direction
266 250 218 228 213 213 207 198 187 178 173 175 189 185 184 183 182 184 193 187 184 181 180 181 181 182 185 185 177 167 167 165 149 125 114 9 307 202 198 182 173 178 175
295 282 261 236 219 213 210 208 199 186 181 186 190 192 178 181 181 178 190 190 184 184 185 183 184 182 182 181 177 164 162 168 166 150 142 171 273 270 224 193 185 182 170
281 281 257 239 221 222 206 201 200 203 194 188 178 182 165 157 170 181 191 194 186 186 188 188 185 184 182 185 183 176 170 173 184 173 164 171 201 194 244 216 200 187 182
344 314 282 239 213 214 212 208 191 192 185 177 184 187 183 184 187 182 190 191 186 186 189 188 186 189 185 185 186 183 179 171 182 189 202 193 161 164 188 237 220 201 195
2 350 336 301 245 217 204 203 176 188 178 178 190 191 192 192 181 176 188 194 188 186 184 187 187 190 188 187 186 184 183 182 184 185 179 186 195 178 169 202 210 220 213
1 1 2 9 349 277 205 180 143 160 184 190 196 191 195 193 185 188 194 197 193 191 187 188 191 193 190 190 191 189 187 191 189 190 186 181 180 192 185 195 196 208 209
8 11 10 8 358 354 350 138 139 150 183 194 195 190 194 196 195 194 198 199 194 196 192 192 195 198 195 192 190 189 192 193 192 194 202 205 201 183 180 176 185 200 199
12 14 9 5 1 3 11 21 112 151 215 209 194 179 187 193 204 207 203 204 201 198 191 191 198 204 198 193 190 193 197 196 198 200 200 204 206 195 190 183 170 182 214
8 8 7 6 10 11 11 25 53 43 57 247 203 185 193 199 205 215 207 207 206 200 194 193 198 206 201 197 192 199 200 197 200 201 201 202 203 198 198 188 178 175 198
6 4 3 6 11 16 13 19 34 43 31 352 304 251 212 217 213 214 216 213 209 201 195 202 204 209 203 199 200 198 198 195 200 198 197 201 194 192 191 191 190 184 180
360 359 3 8 11 14 17 13 14 15 11 360 356 8 339 266 228 216 222 213 208 202 200 204 206 210 205 199 200 200 195 195 197 196 196 200 187 186 185 182 181 185 169
358 5 9 10 13 15 12 9 5 11 11 6 8 0 340 327 297 246 237 217 205 205 205 204 207 212 208 201 200 202 199 198 200 200 196 197 190 187 185 186 185 186 176
9 12 11 11 10 10 8 4 3 5 6 12 11 1 355 341 320 299 272 242 218 209 205 205 211 217 211 204 205 204 201 201 202 200 197 196 190 195 191 186 182 180 171
16 12 8 7 5 5 5 2 359 357 359 8 8 359 348 336 319 311 295 267 234 214 209 211 216 218 211 206 204 202 202 200 202 203 201 198 196 195 189 186 180 171 167
12 9 4 0 0 2 2 2 357 356 357 3 2 352 342 337 336 327 311 309 269 230 214 207 217 218 207 204 200 198 199 196 197 199 200 199 197 195 192 187 180 172 171
356 358 359 357 356 356 354 354 354 351 354 359 351 342 343 343 342 337 333 340 328 321 241 211 211 215 216 207 198 192 192 191 192 193 193 188 187 187 190 188 184 180 177
341 346 348 346 344 345 347 349 346 349 358 358 351 347 350 358 350 343 347 345 335 335 315 260 227 217 216 204 195 190 185 186 187 183 181 181 181 175 169 166 166 181 191
335 339 341 339 340 344 349 349 352 357 359 359 353 350 353 352 349 348 342 333 333 337 297 282 258 236 215 197 187 178 177 180 181 180 178 172 168 168 157 145 138 132 135
321 327 331 330 340 346 346 354 359 358 0 357 351 346 344 341 341 341 332 326 327 331 326 309 277 239 221 185 172 159 162 163 167 167 168 166 166 170 161 148 143 129 111
323 327 336 346 350 341 344 358 357 358 354 345 339 339 340 339 336 333 326 319 316 317 326 333 297 224 218 186 171 161 157 157 155 149 158 170 170 170 165 155 150 150 148
327 337 346 347 333 332 348 356 354 347 334 333 336 339 340 337 334 334 331 329 331 338 343 341 331 297 234 192 182 179 166 167 162 161 162 167 171 172 169 161 158 163 149
342 349 346 333 331 341 354 352 342 329 329 335 338 337 339 341 343 344 339 341 343 340 335 344 336 334 301 238 206 193 187 170 160 165 162 161 163 164 163 159 159 156 144
325 332 332 329 335 343 352 343 329 332 338 343 338 333 338 340 340 341 334 334 340 338 328 325 304 326 340 302 226 197 178 165 148 152 159 160 161 160 158 158 159 153 140
313 325 335 334 332 339 349 338 331 339 341 339 335 334 340 341 341 336 332 332 329 317 309 298 282 302 314 286 221 194 164 148 140 142 151 154 152 142 142 148 151 143 150
301 318 320 324 329 338 342 339 340 343 339 334 334 334 336 335 333 329 325 320 303 304 295 283 273 259 255 253 252 197 176 162 154 139 127 133 142 150 143 136 135 139 148
298 319 325 321 320 329 331 335 339 339 335 331 332 331 330 330 329 328 332 342 332 330 323 313 307 298 293 280 242 218 162 147 149 141 153 164 169 172 169 167 164 160 164